Wind_Speed
29 31 35 34 31 32 34 32 29 27 25 25 25 28 29 30 32 33 35 33 30 28 26 26 24 23 23 23 24 23 22 21 21 20 17 18 18 20 22 21 20 21 23 25 25 24 22 20 22 23 24 22 19 17 17 18 18 18 17 16 15 14 14 15 16 17 19 21 23 25 28 31 33 35 35 36 35 34 33 32 32 31 30 29 29
31 35 34 32 31 34 35 32 30 27 26 26 26 28 30 31 33 35 35 33 30 27 26 26 25 24 23 24 24 24 22 21 21 20 18 17 18 20 22 22 22 23 25 26 26 26 23 20 21 23 24 22 19 17 18 20 21 20 20 19 17 16 15 15 16 17 19 20 21 22 24 26 29 32 35 37 38 37 36 35 35 34 33 32 31
33 35 33 31 34 37 36 33 30 28 26 26 27 29 30 32 35 36 35 32 29 26 26 26 25 25 24 25 25 24 23 22 21 20 17 17 19 21 23 23 24 25 26 27 27 26 22 20 21 23 24 22 19 18 19 21 21 22 22 22 21 19 19 19 20 20 20 21 21 21 22 23 25 27 30 33 36 39 39 39 38 37 36 34 33
35 35 34 33 36 38 36 33 30 28 27 27 28 30 32 34 36 36 33 29 26 25 25 26 26 26 26 26 26 24 23 21 20 19 17 18 19 21 23 24 25 26 27 27 27 26 22 21 22 24 25 22 19 18 19 21 22 23 24 23 23 23 24 25 25 25 24 22 21 21 21 23 24 25 26 28 31 35 38 41 40 39 38 36 35
34 34 34 35 38 39 35 32 30 28 27 28 29 31 33 36 36 34 30 26 24 24 24 23 23 23 24 24 24 23 22 21 19 18 17 19 20 22 24 24 25 26 28 27 26 25 23 23 23 25 25 21 20 20 20 21 23 25 25 25 25 27 28 29 29 29 27 25 23 22 22 22 23 24 25 26 27 29 32 37 40 41 40 38 36
30 31 34 38 41 40 35 32 30 28 29 30 31 33 35 36 35 31 27 25 23 21 21 21 20 21 22 22 21 22 22 20 17 16 17 19 21 23 23 24 25 27 28 26 25 24 24 23 23 26 24 20 21 21 20 23 24 27 27 27 29 30 31 31 31 30 28 27 25 24 23 23 23 24 24 25 25 26 26 29 35 40 42 41 39
33 35 38 42 42 39 35 32 31 31 31 32 33 34 35 35 33 29 26 23 21 20 20 21 20 20 21 22 21 21 20 17 15 15 17 19 20 21 22 23 25 27 27 25 25 24 24 24 24 25 22 20 21 20 21 24 27 30 30 31 32 31 32 31 31 30 28 28 27 26 25 24 24 25 25 24 24 24 24 25 27 32 38 41 41
40 41 43 44 41 38 35 34 33 33 33 34 34 34 34 33 31 29 26 23 22 22 22 22 21 20 21 22 21 20 19 15 14 16 18 19 20 21 22 24 26 27 27 26 24 25 24 25 26 25 22 22 22 20 24 28 30 32 32 32 32 32 32 31 30 29 29 28 28 27 26 24 24 25 25 24 23 23 23 24 24 26 31 37 41
44 45 45 44 40 37 35 34 33 33 33 33 33 34 33 32 30 29 26 25 25 24 24 22 21 20 20 21 19 19 19 15 15 18 19 21 22 23 24 25 26 27 27 25 23 24 26 26 26 26 27 26 22 22 27 31 33 33 33 32 31 31 30 29 29 29 29 28 28 28 28 26 25 25 25 24 23 23 23 23 24 25 26 30 36
46 47 44 41 38 36 34 33 33 33 34 34 34 34 33 31 30 29 27 26 26 25 24 22 21 21 20 20 18 18 19 17 17 19 20 22 23 25 25 26 26 27 27 24 22 24 26 27 28 29 30 26 22 25 31 33 34 34 33 32 30 30 28 27 28 28 28 28 28 29 29 28 26 25 25 25 24 24 24 24 24 25 26 26 29
46 46 42 38 36 35 34 35 35 36 36 35 35 34 33 32 31 29 28 27 26 25 24 22 21 21 20 19 18 18 20 20 19 20 22 24 26 26 26 27 27 26 25 23 22 25 28 30 30 30 28 24 24 29 33 35 35 34 33 30 28 28 28 29 30 29 28 28 29 30 30 29 28 27 26 27 27 28 27 26 26 26 26 26 26
45 43 41 37 36 37 37 39 39 40 39 37 36 35 35 34 32 29 28 27 27 25 24 23 22 21 20 19 19 20 22 23 24 24 25 26 27 27 27 27 26 24 24 24 25 28 30 30 31 29 25 24 28 31 34 36 35 33 31 29 28 28 29 31 31 30 29 28 29 30 31 30 29 28 28 28 29 30 29 29 28 27 27 26 27
44 42 41 40 41 42 43 44 45 45 43 39 38 37 36 35 33 29 28 27 27 25 24 23 22 22 21 20 21 22 24 26 27 27 27 28 29 28 28 29 28 26 24 25 27 29 29 29 30 29 27 28 31 33 36 37 35 33 31 29 29 30 31 33 32 31 30 29 29 30 31 31 31 30 28 28 29 29 30 29 29 29 28 27 27
45 44 44 44 45 47 48 49 49 47 42 39 38 37 36 35 33 29 28 27 27 25 23 22 22 22 22 22 23 24 27 29 30 30 31 31 31 31 31 30 28 26 25 26 28 29 29 29 30 29 29 31 33 36 39 37 34 33 32 31 32 32 32 34 34 32 31 30 30 30 30 30 30 30 28 28 28 29 29 29 29 30 30 29 28
49 49 49 50 51 51 51 50 47 43 39 37 37 37 36 35 33 30 28 27 26 25 23 22 22 23 23 24 25 27 29 31 32 33 33 33 31 30 29 27 26 26 27 27 27 27 28 28 29 31 34 37 39 40 38 36 35 34 33 33 33 33 34 35 34 32 32 32 31 30 29 28 28 28 28 28 28 29 29 28 28 29 30 31 30
52 53 53 53 52 51 49 46 42 40 38 37 37 36 35 34 32 30 28 28 27 25 23 22 22 23 24 26 28 29 31 31 31 31 31 31 30 29 28 27 27 27 28 28 28 30 31 33 36 39 42 43 41 39 36 36 36 35 35 35 34 34 35 36 35 32 32 32 31 30 29 28 27 27 28 28 27 28 29 29 30 31 32 32 32
50 51 51 50 49 47 45 42 40 39 38 38 37 36 35 34 31 30 29 29 28 27 25 23 23 24 25 27 29 30 31 31 31 30 29 29 29 29 31 32 33 33 34 35 36 38 40 41 42 43 43 41 38 36 36 37 36 35 35 35 35 34 36 37 35 33 32 32 32 30 28 27 26 26 27 27 27 27 28 29 30 32 34 35 34
47 47 47 46 45 44 42 41 39 39 38 38 37 36 34 32 31 30 30 30 30 29 27 25 25 25 26 26 27 28 29 30 29 28 27 26 26 27 31 35 36 37 37 37 37 39 40 40 40 39 38 37 36 36 37 37 36 35 35 36 35 35 36 37 35 34 33 32 32 30 27 25 25 25 26 26 26 27 27 28 29 31 34 36 36
44 44 44 43 43 42 41 39 38 38 38 37 36 34 32 31 31 30 30 31 30 28 26 26 25 26 26 27 27 27 28 27 26 26 25 24 25 26 29 32 33 33 32 30 31 33 33 34 34 35 35 35 36 37 37 36 36 35 35 36 36 35 37 37 36 35 34 33 32 30 28 26 25 25 26 26 27 27 27 28 29 30 32 34 36
41 42 41 41 40 39 39 38 37 37 36 35 34 31 30 30 31 31 31 31 29 27 26 27 27 26 27 28 28 28 28 28 27 26 25 25 26 27 29 30 30 29 27 26 27 29 30 31 32 33 34 35 36 37 37 36 36 36 36 36 36 36 37 37 35 35 35 33 32 31 30 28 28 27 27 27 27 28 28 29 30 31 32 33 34
39 39 39 38 38 37 37 36 35 35 34 33 31 30 29 30 31 31 31 30 29 28 28 28 29 28 28 28 28 28 28 28 27 26 26 27 27 29 30 31 30 28 27 27 28 29 31 32 33 34 35 36 37 38 37 36 35 35 36 36 36 37 38 37 35 35 35 34 33 32 31 31 30 30 30 30 29 29 29 30 31 32 33 34 36
37 37 37 36 36 35 35 34 34 32 31 30 29 28 29 30 31 31 31 30 29 29 29 29 30 29 28 28 28 28 28 28 28 28 28 28 29 30 31 31 30 29 28 28 30 31 32 34 35 36 37 38 38 38 37 35 35 36 36 37 37 39 39 37 37 37 36 35 34 33 33 33 33 33 33 33 33 32 31 31 31 33 34 35 37
35 35 35 35 34 34 33 32 31 29 28 28 27 28 28 30 30 31 30 30 29 30 31 30 29 28 27 27 28 30 30 30 30 30 29 29 30 31 31 31 31 31 30 31 32 33 34 36 37 38 38 38 38 37 36 36 36 37 37 38 39 40 40 39 39 39 39 38 37 36 36 36 36 36 36 36 36 35 34 33 33 33 34 35 37
34 34 34 33 33 32 30 29 27 26 26 26 27 28 28 29 29 29 29 29 30 30 29 28 27 27 26 26 28 32 32 33 33 31 30 30 30 31 31 32 32 32 32 33 34 35 36 37 38 38 38 38 37 36 37 37 38 38 38 40 41 41 40 40 41 42 42 41 41 40 40 39 38 38 38 37 38 38 37 36 35 34 35 36 37
33 33 32 31 30 29 27 26 25 25 26 27 28 28 28 29 29 29 28 28 29 28 27 28 28 28 27 26 29 33 33 32 32 31 30 30 31 31 32 32 33 33 33 34 35 36 37 37 37 37 37 37 37 38 38 39 39 40 41 41 42 41 41 42 43 44 44 43 43 43 43 42 41 40 40 39 39 39 39 38 37 35 36 37 38
32 31 30 29 28 27 25 25 26 27 27 28 28 28 28 29 29 29 29 29 29 30 30 31 31 29 28 27 29 31 32 31 31 30 30 31 32 32 32 33 33 34 34 35 36 36 37 37 37 38 38 38 39 40 40 41 42 43 43 43 42 41 42 44 45 45 45 45 45 45 44 44 43 42 40 40 39 39 39 39 38 37 36 37 39
32 31 30 29 28 28 27 27 28 28 29 29 29 29 29 29 30 30 31 31 31 31 31 31 30 30 29 29 30 31 32 32 31 31 31 32 33 33 33 34 35 35 36 36 37 37 38 39 39 40 40 41 42 42 43 44 44 44 44 43 43 43 44 45 46 46 46 46 46 46 46 45 44 42 40 40 39 39 39 40 39 38 38 38 39
32 31 30 30 30 30 29 29 30 30 30 30 30 31 31 31 32 32 32 31 31 30 31 31 31 32 32 32 33 33 33 33 32 32 33 34 35 35 35 36 37 37 37 38 38 39 40 41 42 43 43 44 45 45 45 45 45 45 44 44 44 45 46 47 46 47 47 47 47 47 47 46 44 42 41 40 39 39 39 39 39 39 39 39 39
32 31 30 30 31 31 31 31 31 31 31 31 32 32 33 33 33 33 33 32 31 31 31 31 31 31 31 31 31 32 32 32 33 33 34 35 36 37 37 38 38 39 39 40 41 42 43 44 45 46 46 47 47 47 47 46 45 45 45 45 46 47 48 48 48 48 48 48 48 48 48 47 46 44 42 41 40 39 39 39 39 39 39 40 40
30 30 29 29 30 30 30 30 31 31 31 31 32 32 33 33 33 32 31 30 29 28 27 27 27 28 28 28 29 29 30 31 32 33 34 36 37 37 38 40 41 42 43 43 44 45 46 47 47 48 48 49 49 48 48 47 46 46 46 46 47 48 48 48 49 50 50 50 49 49 48 48 46 45 44 43 41 40 39 39 40 40 41 41 42
27 27 27 27 28 28 28 28 29 29 29 28 28 29 29 29 29 29 28 27 25 23 23 24 26 27 28 29 30 30 30 31 31 32 33 36 37 38 39 41 42 44 45 45 46 47 47 48 49 49 49 49 49 49 48 48 47 47 47 47 48 48 48 49 49 50 50 50 49 48 48 47 46 46 45 43 42 41 41 40 41 41 42 43 43
24 24 25 25 25 25 26 26 26 26 26 26 26 27 27 27 27 27 27 25 24 23 24 25 26 28 29 30 30 31 31 32 32 32 33 35 36 37 38 40 41 43 44 45 46 47 47 47 48 48 49 49 49 49 49 48 47 47 47 48 48 48 48 49 49 49 49 48 47 47 47 46 46 45 45 43 42 42 42 42 42 43 43 44 45
24 25 25 25 25 25 25 26 26 27 27 27 27 27 27 27 27 27 27 26 26 26 27 27 27 28 29 29 29 29 30 31 31 31 31 31 33 35 36 38 40 42 44 45 46 47 47 48 48 48 49 49 49 49 48 48 47 47 47 47 48 49 49 49 49 48 47 46 46 46 46 45 45 44 44 43 43 43 43 43 44 44 44 45 46
28 28 28 27 27 26 25 26 27 27 27 27 28 28 28 28 28 27 27 27 27 28 28 28 29 29 28 27 27 27 28 29 30 30 29 30 32 34 36 38 40 42 44 45 47 48 49 49 49 49 49 50 50 49 48 48 47 47 48 48 49 50 50 51 50 48 46 45 45 44 44 44 44 44 44 44 44 44 44 45 45 45 46 46 47
29 30 31 31 30 28 27 27 27 27 27 28 29 29 30 30 30 29 29 29 30 31 32 32 32 30 29 28 27 27 27 28 29 30 30 32 35 37 40 42 43 44 44 45 47 48 50 51 51 51 51 51 51 50 50 49 49 49 50 50 51 51 52 52 50 47 46 45 44 44 44 45 45 46 46 46 45 45 46 46 46 47 47 47 48
30 30 31 32 32 31 31 30 31 31 31 32 32 33 33 33 33 33 32 33 34 36 36 35 33 31 31 30 29 29 29 29 30 31 33 35 38 41 44 47 48 48 48 48 48 49 50 52 53 53 53 54 54 53 53 53 52 52 52 52 52 52 52 51 50 47 45 45 45 45 46 47 48 47 47 47 46 47 47 47 47 48 48 49 49
33 33 33 34 34 35 35 35 35 36 36 36 37 37 38 38 38 38 39 40 41 41 39 36 34 34 33 32 31 31 32 33 34 35 37 39 42 45 48 50 51 52 52 51 51 51 52 54 55 55 56 56 57 56 56 55 55 54 53 53 52 51 50 50 48 46 46 46 46 46 47 47 47 46 46 46 46 46 47 47 48 48 49 49 50
36 36 37 38 38 39 39 39 39 39 39 40 40 40 41 41 42 43 44 45 45 43 40 38 37 37 37 36 36 36 36 38 39 41 43 45 47 49 51 52 53 54 54 54 53 53 53 54 55 56 57 57 57 57 56 56 55 53 52 52 51 50 49 48 47 46 46 47 46 45 45 45 45 45 45 45 46 47 47 47 48 49 49 49 49
37 37 37 38 39 39 40 40 40 40 41 41 41 41 41 42 42 42 42 43 42 41 41 41 41 42 42 42 41 41 41 42 44 46 48 50 52 53 55 55 56 57 56 55 54 53 52 52 53 54 54 55 54 54 53 53 53 52 51 50 49 49 48 48 47 47 47 47 46 46 45 45 45 45 46 46 46 47 47 48 48 49 49 49 49
41 40 40 40 40 40 41 41 41 41 42 42 42 42 42 42 42 41 41 41 42 42 43 44 45 46 46 47 47 47 47 48 49 51 53 54 56 57 58 59 60 60 60 58 56 54 53 52 51 51 52 52 52 51 51 52 52 51 50 50 50 49 48 48 48 48 48 47 47 46 46 46 47 47 47 48 48 48 48 48 49 49 50 50 50
43 44 44 45 45 44 44 43 43 44 44 45 45 45 44 44 43 43 44 45 45 46 47 47 48 49 50 51 51 52 52 53 54 55 57 58 59 61 63 63 64 63 62 61 58 56 54 53 52 51 51 51 51 51 52 52 52 52 52 52 51 51 50 50 50 50 50 49 48 47 47 48 48 49 49 50 50 50 50 50 50 50 51 51 52
46 48 49 49 49 49 48 47 48 48 48 48 48 47 46 46 47 47 48 49 50 50 51 52 53 53 54 55 56 56 57 59 60 61 62 63 64 65 67 67 67 66 64 63 60 58 56 54 53 52 52 53 53 53 54 54 55 55 55 54 54 53 52 52 52 51 50 48 47 47 48 48 49 49 50 51 52 52 53 53 53 52 53 53 53
50 50 51 51 51 50 49 49 50 50 50 50 49 49 49 49 51 52 53 53 54 54 55 55 56 57 57 58 59 61 62 64 65 66 67 68 68 69 70 70 69 67 66 65 62 60 57 56 55 54 55 55 56 56 56 57 57 56 56 56 55 53 52 51 51 51 50 48 46 46 47 48 48 48 49 51 52 53 54 54 54 54 54 55 55
49 49 50 50 50 50 50 49 50 50 50 49 50 50 51 52 53 54 55 56 56 57 57 58 59 59 60 61 63 64 66 68 69 70 71 71 71 72 72 71 70 69 68 66 63 60 59 57 57 57 57 57 57 57 57 57 56 56 56 56 55 53 52 51 51 52 51 49 47 47 47 48 49 49 49 49 50 51 52 52 53 54 54 55 55
47 47 48 49 49 48 48 48 48 47 48 48 50 51 53 54 55 56 58 59 59 59 60 60 61 62 62 63 64 66 67 69 70 72 72 72 73 73 72 71 70 69 68 66 63 60 59 58 57 57 57 57 57 57 57 56 55 55 56 55 55 54 54 54 54 54 54 52 51 49 49 50 51 51 51 51 50 50 49 49 49 49 50 51 51
52 52 53 53 53 52 51 51 51 51 52 53 54 55 56 57 58 58 59 60 60 60 61 61 62 63 64 64 65 67 69 70 72 73 74 74 75 74 73 72 70 69 68 65 62 60 59 57 57 56 56 56 57 58 58 57 56 56 55 55 55 56 57 57 57 57 57 56 55 54 54 55 55 55 55 56 54 52 51 50 48 48 47 47 48
57 58 59 60 60 60 60 60 60 60 61 61 61 62 62 63 63 62 62 62 62 63 64 65 66 66 67 68 70 72 73 75 77 77 78 78 77 76 74 73 71 70 67 64 61 59 58 58 57 56 55 56 57 58 59 58 57 57 57 57 57 57 58 59 60 59 59 59 59 59 59 59 60 59 60 60 59 57 55 53 52 50 49 48 48
61 62 62 63 63 64 65 66 66 67 67 67 67 68 69 69 69 68 67 67 67 67 68 69 70 71 73 74 76 78 80 81 82 82 82 81 79 78 76 74 72 70 66 63 61 60 59 58 57 56 55 56 57 58 59 60 59 59 60 61 61 60 60 60 60 60 60 59 60 61 62 62 63 63 64 64 64 62 60 57 55 53 53 53 52
65 66 66 67 67 68 69 70 70 71 71 71 72 72 72 72 72 72 73 73 73 73 73 75 76 78 80 81 82 83 84 85 86 85 84 82 80 78 76 74 72 69 66 63 62 61 60 59 58 57 56 57 58 58 60 61 62 62 63 64 65 65 64 63 63 63 63 62 62 64 64 64 65 66 67 67 67 66 65 62 59 57 56 57 57
67 68 69 70 71 72 73 74 75 75 76 76 76 75 75 75 75 75 77 78 79 80 81 82 83 84 85 86 86 87 87 88 88 87 86 83 80 78 76 74 72 69 67 67 66 64 62 61 60 60 59 59 59 60 61 62 64 65 65 66 67 67 67 67 67 67 67 67 67 68 68 68 68 68 69 69 70 69 68 65 63 61 60 61 60
69 69 70 72 74 75 77 78 79 80 80 81 81 80 80 80 80 80 81 82 83 85 85 86 87 87 88 89 89 89 89 89 89 88 87 85 82 79 76 74 71 70 70 71 69 68 67 66 65 65 64 64 64 64 64 65 66 66 67 68 68 69 68 68 68 69 69 70 71 72 72 72 72 72 72 72 72 72 70 67 64 62 62 63 64
Wind_Direction
277 281 285 284 287 297 303 302 297 295 297 300 302 305 307 310 311 310 310 311 312 312 307 302 297 294 291 288 289 292 295 293 294 289 270 266 265 253 256 265 277 288 296 302 308 313 311 309 311 311 312 314 312 314 324 335 339 340 337 332 324 315 306 296 287 279 273 269 266 264 261 259 258 257 255 254 253 253 254 255 256 258 259 262 262
277 283 282 279 287 298 299 297 294 292 296 301 301 304 308 312 312 311 310 310 311 310 304 298 293 290 287 284 286 289 291 289 290 287 271 264 261 253 255 264 276 286 294 300 307 312 308 304 307 308 310 311 309 313 325 334 337 337 337 336 333 326 318 311 305 298 290 281 276 272 269 265 262 259 257 255 253 253 253 253 255 256 257 258 260
279 280 276 275 288 297 294 291 290 291 296 300 300 304 309 313 312 311 309 309 309 308 300 293 288 285 283 281 283 286 287 285 286 283 270 261 256 253 257 265 275 284 292 299 306 309 302 297 299 305 309 308 307 311 323 331 332 332 331 330 330 326 322 319 316 313 306 298 289 285 281 277 272 267 263 259 256 254 253 252 253 254 255 256 257
276 272 270 275 287 294 290 287 288 291 294 296 300 306 311 313 312 310 308 307 307 304 297 291 285 282 279 279 280 282 280 280 281 276 264 256 253 254 258 267 275 283 291 298 306 305 296 291 292 302 309 306 304 308 317 325 326 326 325 325 325 323 322 321 321 319 315 310 302 297 293 288 283 277 272 268 263 259 255 252 251 252 253 253 253
266 263 267 275 286 290 287 285 288 289 289 293 301 308 312 313 311 307 305 305 304 301 296 291 286 281 278 278 277 275 275 276 276 268 259 251 250 254 260 269 276 284 291 298 306 302 294 289 286 300 308 303 302 306 314 321 323 323 322 322 323 321 320 320 320 319 316 311 305 301 299 295 288 282 277 272 268 265 260 255 252 251 251 251 251
256 261 268 277 285 286 285 285 285 284 286 293 302 309 312 311 307 303 302 303 302 300 298 295 289 282 278 275 271 270 273 275 271 263 257 252 253 258 264 271 278 286 291 298 303 298 294 286 282 299 305 300 301 304 312 319 320 321 320 320 321 319 317 317 317 315 311 307 303 301 300 297 291 285 280 275 270 267 265 262 257 253 250 249 250
256 265 270 278 283 283 282 281 280 281 287 296 303 309 310 307 303 301 302 301 300 300 299 298 290 280 275 271 269 270 273 273 268 262 258 257 259 263 269 275 282 287 289 296 300 295 290 280 282 299 301 296 297 299 311 316 317 318 316 317 317 316 315 314 312 309 306 303 302 301 299 299 295 289 284 280 275 271 268 267 264 259 253 249 248
258 266 272 278 279 278 278 279 281 285 292 299 305 308 308 303 299 299 300 297 297 298 299 298 290 277 271 270 271 274 275 272 266 260 257 259 262 267 273 278 283 284 286 295 297 292 286 276 284 297 297 295 292 296 309 312 313 313 313 314 314 314 313 312 309 307 304 302 300 299 298 298 298 295 289 283 278 276 273 270 268 264 258 252 249
260 266 271 275 274 273 276 280 286 292 298 302 305 306 304 300 297 297 295 293 295 296 297 296 287 275 269 269 270 271 274 273 266 260 259 262 266 271 276 280 283 282 287 295 294 290 284 278 285 295 296 293 288 298 309 310 310 310 310 312 312 313 313 312 310 306 302 299 296 295 295 296 297 296 291 282 276 276 277 274 271 269 264 257 252
262 267 268 269 270 271 275 282 289 295 299 302 303 303 300 297 295 294 291 291 293 293 294 292 283 275 269 267 267 267 269 271 267 264 263 265 269 275 280 283 284 285 290 294 291 287 283 280 287 295 296 289 286 300 307 306 306 306 308 311 312 313 312 312 313 309 302 295 292 291 293 294 295 295 290 282 276 276 278 276 273 271 268 264 257
262 265 265 264 267 271 276 283 289 294 298 299 299 298 296 294 293 291 289 289 290 291 290 286 279 273 269 269 270 270 271 273 271 269 268 270 274 279 284 287 288 290 295 296 291 286 283 283 288 293 290 283 287 298 302 302 302 303 307 310 312 313 311 311 312 311 304 293 288 288 289 290 291 292 288 282 277 276 277 276 272 269 267 265 260
260 261 262 263 267 272 278 283 288 293 295 296 295 294 292 291 290 289 287 287 287 286 284 281 277 272 268 268 269 271 271 272 272 273 273 275 279 283 288 290 289 289 290 286 281 279 281 283 286 287 281 279 286 294 298 299 299 302 305 307 310 311 312 313 312 311 306 295 287 284 285 287 288 288 286 282 278 276 275 273 271 269 267 265 263
256 257 259 263 268 272 277 282 287 290 292 292 290 289 289 288 288 288 286 285 283 282 279 275 273 271 269 267 268 271 273 274 275 276 277 278 281 284 285 283 282 282 281 277 274 278 282 283 282 278 274 279 286 292 297 297 296 301 304 305 306 307 311 315 314 311 308 299 288 283 282 283 285 285 283 280 277 275 273 270 268 267 266 266 265
255 257 260 264 269 272 277 281 285 288 289 288 286 286 286 286 287 286 284 283 281 279 276 269 268 268 269 270 271 273 274 276 276 277 278 278 279 281 282 281 283 285 284 281 281 283 283 279 274 271 274 281 287 292 294 293 295 300 303 303 303 304 309 315 315 311 309 303 293 285 283 282 283 283 281 279 276 273 271 269 266 264 263 263 263
257 260 263 266 270 273 277 281 284 285 284 283 283 284 284 285 286 284 281 280 278 276 272 266 263 263 265 268 269 270 271 272 273 274 276 277 279 280 281 281 281 281 279 279 280 279 277 274 272 274 278 283 287 290 291 291 296 299 301 301 301 304 309 314 314 310 308 306 297 289 285 283 282 281 281 279 275 270 269 269 268 265 262 259 258
259 261 264 268 271 274 277 280 281 281 280 280 281 282 283 285 285 281 277 276 275 273 270 263 259 259 261 264 266 267 267 268 270 271 272 275 277 277 273 268 267 268 268 269 269 269 270 271 273 276 279 282 285 287 288 292 296 297 299 300 300 305 310 313 311 308 307 306 301 294 288 285 283 282 282 280 275 269 267 267 268 267 266 262 258
263 265 267 270 273 275 277 278 278 278 277 278 279 281 282 283 281 277 274 273 272 272 269 263 259 258 259 260 262 263 263 264 266 269 271 272 271 268 263 260 260 261 262 264 265 266 268 270 273 277 279 282 283 284 287 292 294 296 297 298 300 306 311 311 308 306 306 305 302 297 290 286 285 284 283 280 276 271 267 265 264 264 266 266 263
267 269 271 272 274 275 276 276 276 275 275 276 277 279 280 280 277 274 272 270 270 270 267 263 260 259 259 259 261 263 262 262 264 267 269 270 270 267 263 260 260 261 262 264 265 266 268 270 273 276 278 279 280 283 288 291 293 295 296 298 301 306 310 309 306 305 304 303 302 297 291 287 285 284 283 280 278 275 271 267 263 260 261 263 265
269 270 271 272 273 274 274 274 273 273 273 274 275 277 277 276 274 272 270 268 267 266 264 262 260 259 260 261 262 263 263 262 262 264 268 272 274 273 269 266 265 265 266 267 267 268 269 272 273 275 276 278 280 284 287 290 292 294 295 298 301 305 308 306 305 305 304 302 300 296 291 286 284 284 282 281 280 278 275 271 267 262 259 260 262
269 270 271 271 272 272 272 271 271 271 272 272 274 274 274 273 271 269 267 265 264 262 260 260 260 259 260 262 263 264 264 263 262 265 270 274 276 276 275 274 273 272 272 272 272 272 274 275 276 276 277 279 282 285 287 289 292 293 295 297 300 304 305 303 302 303 303 301 297 294 291 287 284 282 282 281 279 278 276 273 270 266 263 262 261
269 269 270 270 270 270 269 269 269 269 270 271 272 272 271 270 268 267 265 262 260 258 257 259 262 262 263 266 268 268 266 265 264 266 272 275 277 278 279 280 279 277 276 275 275 276 277 278 278 279 279 281 283 285 287 289 291 293 295 296 298 302 302 300 299 300 299 298 294 291 289 287 284 282 281 280 279 278 276 273 271 268 265 264 263
268 268 268 268 268 268 268 268 268 268 269 269 269 270 269 267 265 264 263 261 258 256 255 257 261 264 267 270 272 272 270 269 268 270 273 276 278 280 282 283 282 280 279 279 279 279 280 280 281 281 282 282 283 285 287 290 292 293 295 296 297 300 299 296 297 298 297 295 291 289 288 286 284 283 281 280 279 278 277 275 271 268 266 264 263
267 267 267 267 267 267 267 267 267 267 267 267 267 267 265 263 262 261 261 260 258 258 258 258 260 264 267 270 272 273 272 272 273 274 275 277 278 280 281 282 281 281 281 281 280 280 281 281 281 281 282 282 284 286 289 291 292 293 294 295 296 297 296 293 294 296 295 292 289 288 288 287 285 282 281 280 278 278 277 276 273 269 266 264 264
265 266 266 266 266 266 266 265 264 264 264 263 263 262 260 259 259 258 258 259 260 262 265 265 265 267 269 270 271 272 271 272 273 274 275 275 275 276 277 278 279 280 281 281 281 281 281 281 281 281 282 284 286 288 290 291 292 293 293 294 294 295 293 291 293 295 294 292 289 287 287 286 286 283 280 279 278 276 276 275 274 271 267 265 264
265 265 265 265 264 263 262 261 260 259 258 258 257 257 257 257 257 257 257 258 260 262 264 266 268 270 270 269 269 270 270 271 272 273 274 274 273 273 274 276 278 279 280 280 281 282 282 282 282 283 284 286 288 289 289 290 291 292 293 293 293 292 291 290 292 293 293 292 291 288 286 286 286 284 280 278 277 275 274 273 272 271 269 267 265
264 264 264 263 262 260 258 256 255 254 254 253 253 253 254 256 257 257 257 257 258 259 261 265 268 269 268 267 267 268 269 270 272 274 274 273 272 272 273 275 277 279 280 281 281 282 283 284 284 284 285 286 287 287 288 289 290 291 292 292 290 290 289 290 291 291 292 292 291 289 287 286 286 285 281 279 277 274 272 271 270 270 269 267 266
263 263 262 261 260 258 256 253 252 251 251 251 251 252 253 254 255 256 258 258 258 260 262 264 266 266 265 265 265 267 269 271 272 273 273 273 272 272 274 276 277 278 280 281 281 282 283 283 284 284 285 286 286 286 287 288 289 290 290 290 289 288 288 289 289 289 290 291 290 288 287 286 286 285 282 281 279 274 271 270 269 269 268 268 267
261 260 259 258 257 256 254 252 251 250 250 251 252 252 252 252 253 254 256 257 258 260 262 263 265 266 266 266 267 268 270 271 271 272 272 273 274 275 276 277 278 279 280 281 281 282 283 283 284 284 285 285 285 286 287 288 289 289 289 289 288 287 287 287 287 288 289 289 288 287 286 286 286 285 283 282 280 275 271 270 269 269 269 269 269
260 258 256 255 255 255 254 252 252 251 251 252 252 252 251 251 252 253 254 256 258 260 262 264 266 268 269 269 270 270 271 271 271 271 272 273 274 275 276 277 278 279 280 280 281 281 282 282 283 283 284 284 285 285 286 286 287 287 287 287 286 286 286 286 287 288 288 288 287 286 285 285 286 285 284 283 280 274 270 269 268 268 268 268 269
257 255 254 254 254 254 254 253 253 252 252 251 251 251 251 251 252 253 254 255 256 259 262 265 269 271 273 274 275 275 275 274 274 275 276 277 277 278 278 278 278 279 280 280 280 280 280 281 281 282 282 282 283 284 284 285 285 285 284 284 285 285 285 286 288 288 288 287 286 285 284 284 285 285 284 284 280 274 270 268 267 267 267 268 268
254 253 253 254 254 253 251 250 250 249 249 249 249 249 249 249 251 251 251 251 251 256 263 271 275 278 279 279 279 279 279 280 280 281 282 282 283 283 283 282 282 282 282 282 281 281 280 281 281 281 282 282 283 283 283 283 283 283 282 282 283 284 285 287 289 289 288 287 285 284 284 284 284 284 284 282 279 275 271 269 268 268 268 268 269
250 248 248 248 248 247 245 243 243 244 245 247 248 248 249 249 249 249 248 248 251 260 270 277 279 281 280 279 280 281 282 282 283 284 285 287 289 290 290 289 288 288 287 286 284 283 283 282 282 282 282 283 283 283 282 282 282 281 281 282 283 284 286 288 290 290 288 287 285 283 282 283 284 284 282 280 277 274 272 270 269 269 270 270 271
243 242 242 242 242 243 243 242 243 244 245 248 250 252 252 252 252 252 252 254 259 267 274 279 282 282 281 280 280 282 283 284 285 285 287 292 296 298 299 298 296 294 293 291 289 287 286 285 284 283 283 282 282 282 282 282 282 282 282 283 284 285 286 289 290 289 288 286 284 283 282 283 283 282 281 278 276 273 272 271 271 270 271 271 272
241 241 241 242 242 242 244 246 247 248 249 250 252 254 255 255 257 258 261 264 268 273 277 282 285 286 284 283 283 285 287 288 288 287 289 293 297 299 301 301 300 298 296 294 292 290 289 287 286 285 284 283 282 282 282 283 283 283 284 284 284 284 286 289 291 289 287 286 284 283 282 282 282 280 279 277 275 273 272 271 270 270 271 271 272
244 244 244 244 244 244 246 248 250 252 252 254 255 257 258 260 262 264 267 270 273 276 279 283 285 284 283 283 283 284 287 288 288 288 288 290 292 297 302 303 302 301 299 297 295 292 291 289 288 286 285 284 284 284 284 284 284 284 284 284 284 284 286 289 290 287 285 285 284 282 281 281 281 280 278 277 275 273 272 271 270 270 270 270 271
251 251 250 249 249 250 252 254 256 257 259 260 261 262 263 264 266 267 269 273 276 279 281 282 282 282 282 284 284 283 284 287 289 289 289 290 291 297 303 305 305 304 303 300 298 295 292 290 288 287 286 285 285 284 284 284 284 284 284 284 284 285 286 288 288 286 284 284 283 282 281 282 282 280 277 275 274 273 272 271 270 269 269 270 270
261 260 260 258 257 258 259 261 263 264 265 266 267 267 268 268 269 270 272 275 278 280 280 279 280 282 284 286 287 288 288 290 293 294 296 297 299 302 306 307 308 306 304 302 300 297 294 291 288 287 286 285 285 284 284 284 284 284 284 284 284 285 286 286 286 284 284 283 283 282 282 282 281 279 276 274 273 271 271 270 270 270 270 270 270
266 265 263 262 262 263 264 265 267 268 268 269 270 271 272 273 274 275 276 278 279 280 279 279 280 282 285 287 289 292 294 296 298 300 302 303 305 307 309 309 310 308 305 303 300 298 294 291 289 287 286 286 285 285 285 285 285 284 284 285 285 285 286 285 284 284 283 284 284 283 283 282 280 278 277 275 274 272 270 270 270 270 270 270 271
266 265 264 264 264 265 266 267 269 269 270 271 273 275 277 279 279 279 280 280 280 280 280 280 281 282 284 286 289 292 296 299 301 303 305 306 308 309 310 310 311 310 308 304 301 298 295 292 289 288 287 287 287 287 286 286 285 285 285 285 286 286 286 285 285 284 284 285 285 285 285 284 281 279 278 278 277 275 272 271 270 270 270 270 271
266 266 267 268 268 267 268 269 270 271 272 274 277 280 282 283 283 283 282 282 281 280 280 281 282 283 284 286 288 290 294 299 303 305 306 308 309 309 310 310 310 311 310 307 304 301 298 295 292 290 289 288 288 288 287 287 286 286 286 286 286 286 286 286 286 285 285 284 284 284 285 284 282 280 279 278 278 277 275 273 271 270 270 269 271
265 265 267 269 269 269 269 270 272 274 275 276 279 282 283 284 285 285 285 286 286 285 285 285 286 287 288 289 289 289 291 297 302 305 307 307 308 308 309 310 310 311 310 308 305 302 299 296 294 292 291 290 289 288 288 287 287 288 288 288 288 288 289 289 288 287 286 286 285 284 283 282 280 279 278 277 276 275 275 274 272 271 271 271 272
265 267 268 270 271 271 272 273 276 277 277 278 280 281 282 283 285 286 287 288 289 288 288 289 289 290 290 291 291 291 292 296 300 303 305 306 306 307 308 309 309 310 310 308 305 302 299 297 295 293 292 291 291 290 290 290 290 291 291 291 291 291 292 291 290 290 289 288 287 286 283 281 279 278 277 276 275 274 274 273 272 271 272 272 273
270 272 272 273 273 274 275 276 277 278 277 278 278 280 281 283 285 287 287 289 289 289 289 290 290 291 291 292 292 293 294 296 298 300 302 304 305 305 306 308 309 309 309 308 305 302 300 298 296 295 293 293 293 293 292 293 293 293 293 292 293 294 294 293 292 291 291 291 290 288 286 284 281 280 278 276 275 275 274 273 272 271 271 271 272
274 274 274 275 275 275 276 276 276 276 277 277 278 280 282 283 285 287 288 289 289 289 290 290 291 292 292 292 293 293 294 294 296 298 300 302 303 304 306 307 308 308 308 306 304 301 299 298 296 295 294 294 294 293 293 293 293 293 293 293 294 294 294 293 293 293 293 293 292 290 288 287 285 283 281 279 278 276 275 274 273 272 271 271 272
268 270 271 273 274 274 275 274 274 274 275 277 278 280 281 283 285 287 288 289 290 290 290 290 291 291 291 291 291 292 293 294 295 297 299 301 303 304 305 306 306 306 306 304 302 299 298 296 295 294 293 294 293 293 293 293 293 293 293 293 294 295 295 294 294 294 294 294 294 293 292 291 289 288 287 285 283 281 279 277 276 275 275 274 274
265 266 268 270 271 271 272 272 272 272 273 276 278 279 281 283 284 285 286 287 288 288 288 289 289 290 290 292 293 294 295 296 297 299 300 302 303 304 304 304 304 304 303 302 299 297 296 294 293 292 293 293 293 292 293 293 294 293 293 293 294 294 294 294 294 295 296 296 296 296 295 294 293 292 291 289 287 286 284 283 281 280 278 278 278
266 267 268 269 269 270 271 271 272 273 274 276 277 279 280 281 282 283 284 284 284 285 286 287 289 291 292 293 294 295 296 297 298 299 301 302 302 303 302 302 302 301 300 298 296 294 293 292 291 292 292 292 292 292 293 293 293 293 293 292 292 292 292 292 293 293 294 295 295 295 295 294 294 293 291 290 288 287 286 285 284 283 282 281 281
268 269 269 270 270 270 271 271 272 272 273 275 276 278 279 280 281 283 283 284 284 285 286 288 290 291 292 293 294 295 296 296 297 298 300 300 301 301 300 300 300 299 297 295 293 292 291 291 291 290 290 290 290 291 291 291 291 291 291 291 291 290 290 290 290 291 291 292 292 291 292 292 292 291 290 289 289 288 287 286 285 285 285 284 283
269 270 270 271 271 272 272 272 273 273 274 275 276 277 278 279 281 282 283 284 285 285 286 286 287 289 290 291 292 293 293 294 295 296 297 298 299 299 298 298 297 296 294 291 290 290 289 289 289 289 289 289 288 288 288 289 289 290 290 290 290 290 291 291 291 291 291 291 290 289 289 289 289 289 289 289 288 288 287 286 286 286 286 285 283
270 271 272 273 273 273 274 274 275 275 276 276 276 277 278 278 279 280 281 282 283 283 284 284 285 286 287 288 289 291 292 293 294 295 296 297 297 296 295 295 294 292 290 289 289 288 287 287 286 286 286 286 285 285 285 286 286 287 288 288 289 290 291 291 292 292 292 291 290 289 289 289 289 288 288 287 287 286 286 285 286 286 285 284 282
271 272 273 274 274 275 275 276 277 277 278 277 277 277 277 278 278 279 279 280 281 282 283 283 284 285 286 287 288 290 291 292 294 295 295 295 294 293 292 291 290 289 288 288 289 288 288 288 287 287 286 286 285 284 284 284 284 284 285 285 286 286 287 287 288 288 289 289 289 289 289 290 289 289 289 288 288 287 286 286 285 285 284 284 283
Height
10754 10754 10753 10753 10753 10753 10754 10754 10755 10756 10756 10755 10754 10753 10752 10750 10748 10746 10744 10744 10743 10742 10741 10740 10739 10739 10738 10738 10737 10736 10736 10735 10735 10734 10735 10735 10736 10736 10736 10736 10736 10735 10734 10734 10733 10733 10732 10731 10730 10729 10729 10728 10728 10727 10727 10727 10726 10725 10725 10724 10723 10723 10722 10722 10721 10721 10720 10720 10720 10719 10719 10719 10719 10720 10720 10721 10721 10722 10723 10723 10724 10724 10725 10725 10725
10750 10750 10749 10749 10749 10749 10750 10750 10751 10752 10752 10751 10751 10750 10749 10747 10745 10743 10741 10740 10739 10738 10737 10736 10736 10735 10735 10734 10734 10733 10733 10732 10732 10731 10732 10733 10733 10733 10733 10733 10733 10732 10732 10731 10731 10730 10730 10729 10728 10728 10727 10727 10726 10726 10726 10725 10724 10724 10723 10722 10722 10721 10720 10720 10719 10718 10718 10717 10717 10717 10716 10716 10716 10716 10716 10717 10717 10718 10719 10719 10720 10721 10721 10722 10722
10746 10746 10745 10745 10745 10745 10746 10746 10747 10748 10748 10748 10747 10746 10745 10744 10742 10739 10737 10736 10736 10735 10733 10733 10732 10732 10732 10731 10731 10730 10730 10729 10729 10729 10729 10730 10730 10731 10731 10731 10731 10730 10730 10730 10729 10728 10728 10727 10727 10726 10726 10725 10725 10725 10724 10723 10723 10722 10721 10721 10720 10719 10719 10718 10717 10717 10716 10715 10715 10714 10714 10713 10713 10713 10713 10713 10713 10714 10714 10715 10716 10716 10717 10718 10718
10741 10741 10741 10741 10741 10741 10742 10742 10743 10744 10745 10745 10744 10743 10742 10740 10738 10735 10734 10733 10733 10732 10730 10729 10729 10729 10728 10728 10727 10727 10727 10726 10726 10726 10727 10727 10728 10728 10728 10728 10728 10728 10728 10727 10727 10726 10725 10725 10725 10724 10724 10723 10723 10723 10722 10721 10721 10720 10719 10719 10718 10717 10716 10715 10715 10714 10714 10713 10713 10712 10711 10711 10710 10710 10710 10710 10709 10710 10710 10710 10711 10712 10713 10714 10714
10736 10737 10736 10737 10737 10737 10738 10739 10740 10741 10741 10741 10740 10739 10737 10736 10734 10732 10731 10730 10730 10729 10727 10726 10726 10725 10724 10724 10724 10724 10724 10724 10724 10724 10724 10725 10725 10726 10726 10726 10726 10725 10725 10725 10724 10723 10723 10723 10723 10722 10721 10721 10721 10721 10720 10719 10718 10718 10717 10716 10715 10714 10713 10713 10712 10711 10711 10710 10710 10709 10708 10708 10707 10707 10706 10706 10706 10705 10705 10705 10706 10707 10708 10709 10710
10731 10732 10732 10733 10733 10733 10734 10735 10736 10737 10737 10737 10737 10735 10734 10732 10730 10729 10728 10728 10727 10726 10724 10723 10722 10721 10720 10720 10720 10721 10721 10722 10722 10722 10722 10723 10723 10723 10723 10723 10723 10723 10723 10723 10722 10721 10720 10720 10720 10720 10719 10719 10719 10718 10717 10716 10716 10715 10714 10714 10713 10712 10711 10710 10709 10708 10707 10706 10706 10706 10705 10704 10704 10703 10703 10702 10702 10702 10701 10701 10702 10703 10704 10705 10706
10727 10728 10728 10729 10729 10729 10730 10731 10732 10733 10733 10733 10733 10732 10730 10728 10726 10726 10725 10724 10723 10722 10721 10720 10719 10718 10716 10716 10717 10718 10719 10719 10720 10720 10720 10720 10720 10720 10721 10721 10721 10720 10720 10720 10719 10718 10718 10718 10718 10718 10717 10717 10716 10715 10714 10713 10713 10713 10712 10711 10710 10709 10708 10707 10706 10705 10704 10703 10702 10702 10702 10701 10700 10700 10699 10699 10698 10698 10698 10698 10698 10698 10699 10700 10701
10724 10724 10724 10725 10725 10725 10726 10726 10727 10727 10728 10728 10728 10727 10726 10724 10723 10722 10722 10721 10720 10719 10718 10717 10716 10714 10713 10713 10714 10715 10715 10717 10717 10717 10717 10717 10717 10718 10718 10718 10718 10718 10717 10717 10716 10715 10715 10715 10715 10715 10714 10714 10714 10713 10711 10711 10711 10710 10709 10708 10707 10706 10705 10704 10703 10702 10701 10700 10699 10699 10698 10698 10697 10696 10696 10695 10695 10695 10694 10694 10694 10694 10695 10695 10697
10721 10721 10721 10722 10722 10722 10722 10722 10722 10722 10723 10723 10723 10723 10722 10721 10720 10719 10719 10718 10717 10715 10715 10714 10713 10711 10711 10711 10712 10712 10713 10714 10715 10715 10715 10714 10715 10715 10715 10715 10715 10714 10714 10714 10713 10712 10712 10713 10713 10712 10711 10711 10711 10710 10708 10708 10708 10707 10707 10706 10704 10703 10702 10701 10700 10699 10698 10697 10696 10695 10695 10695 10694 10693 10692 10692 10691 10691 10691 10691 10691 10691 10691 10691 10692
10717 10717 10717 10717 10718 10718 10718 10718 10718 10718 10719 10719 10719 10718 10717 10717 10717 10716 10716 10715 10714 10712 10711 10711 10710 10708 10708 10708 10709 10710 10710 10711 10711 10711 10711 10711 10711 10711 10711 10711 10711 10711 10711 10710 10710 10709 10709 10709 10710 10709 10708 10708 10708 10707 10706 10705 10705 10704 10704 10703 10702 10700 10699 10698 10697 10696 10695 10694 10693 10692 10691 10691 10690 10690 10689 10688 10688 10688 10687 10687 10687 10687 10688 10688 10689
10713 10713 10713 10713 10713 10714 10714 10713 10714 10715 10716 10716 10715 10714 10714 10713 10713 10713 10713 10712 10710 10709 10708 10707 10706 10706 10705 10706 10706 10707 10707 10707 10708 10708 10708 10708 10708 10708 10707 10707 10707 10707 10707 10707 10707 10707 10706 10706 10706 10706 10706 10706 10705 10704 10703 10702 10702 10701 10701 10700 10698 10697 10696 10695 10694 10693 10692 10691 10690 10688 10688 10687 10687 10686 10685 10685 10684 10684 10684 10684 10684 10684 10684 10685 10685
10709 10709 10709 10709 10709 10709 10709 10709 10710 10711 10712 10712 10712 10711 10710 10709 10710 10710 10709 10708 10707 10705 10704 10703 10703 10702 10703 10703 10704 10703 10703 10704 10704 10704 10704 10704 10704 10704 10703 10703 10703 10704 10704 10704 10704 10704 10703 10703 10703 10703 10703 10702 10702 10701 10700 10699 10698 10698 10698 10697 10695 10694 10693 10692 10690 10689 10688 10687 10686 10685 10684 10683 10683 10682 10682 10681 10680 10680 10680 10680 10680 10681 10681 10682 10682
10704 10704 10705 10705 10705 10705 10705 10705 10706 10707 10708 10708 10708 10707 10706 10705 10706 10706 10706 10704 10703 10702 10701 10699 10699 10699 10699 10700 10701 10700 10700 10700 10700 10700 10700 10700 10700 10700 10700 10700 10700 10700 10701 10701 10701 10700 10700 10699 10699 10699 10699 10698 10698 10698 10697 10696 10695 10694 10694 10693 10693 10691 10690 10688 10686 10685 10684 10683 10682 10681 10680 10679 10679 10678 10678 10677 10676 10676 10676 10676 10676 10677 10677 10678 10679
10700 10700 10700 10700 10700 10701 10701 10701 10702 10703 10704 10704 10704 10703 10702 10702 10702 10702 10702 10701 10699 10698 10697 10696 10696 10696 10696 10697 10697 10697 10697 10696 10696 10696 10696 10696 10696 10696 10697 10696 10696 10696 10697 10697 10697 10696 10696 10696 10696 10696 10695 10694 10694 10694 10693 10692 10691 10690 10690 10690 10689 10688 10686 10685 10683 10681 10680 10679 10678 10677 10676 10675 10675 10674 10673 10673 10672 10672 10672 10672 10672 10673 10673 10674 10674
10695 10695 10696 10696 10696 10696 10697 10697 10698 10699 10700 10700 10700 10699 10698 10698 10698 10698 10698 10697 10696 10695 10694 10694 10693 10693 10694 10694 10694 10694 10694 10693 10693 10693 10693 10693 10693 10693 10693 10693 10693 10693 10693 10694 10694 10694 10694 10693 10693 10692 10692 10691 10691 10690 10689 10688 10687 10686 10686 10686 10685 10684 10682 10681 10680 10678 10676 10675 10674 10672 10672 10671 10670 10670 10669 10669 10668 10668 10668 10668 10668 10669 10669 10669 10670
10690 10690 10691 10691 10692 10692 10693 10693 10693 10694 10695 10696 10696 10695 10694 10694 10694 10694 10694 10693 10692 10691 10691 10690 10690 10690 10691 10691 10691 10691 10690 10690 10690 10690 10690 10689 10689 10690 10690 10690 10690 10690 10691 10692 10692 10692 10691 10690 10689 10689 10688 10687 10687 10687 10685 10684 10683 10682 10682 10682 10681 10679 10678 10677 10676 10674 10673 10671 10670 10669 10668 10667 10666 10665 10665 10664 10664 10664 10664 10664 10664 10664 10664 10664 10666
10684 10685 10685 10686 10687 10687 10688 10689 10689 10690 10691 10691 10691 10691 10690 10690 10690 10690 10690 10689 10688 10688 10687 10686 10686 10686 10687 10687 10687 10687 10687 10686 10686 10686 10686 10686 10686 10686 10687 10687 10687 10687 10687 10688 10688 10687 10687 10686 10685 10685 10684 10684 10683 10682 10681 10680 10680 10679 10678 10677 10676 10675 10673 10672 10671 10670 10669 10668 10667 10665 10664 10663 10662 10661 10661 10660 10660 10660 10660 10660 10660 10660 10660 10660 10660
10679 10679 10680 10681 10682 10682 10683 10684 10685 10685 10686 10687 10687 10687 10686 10686 10686 10686 10685 10685 10684 10684 10683 10682 10682 10682 10682 10683 10683 10683 10682 10682 10683 10683 10683 10683 10683 10683 10683 10683 10682 10682 10683 10683 10683 10682 10682 10682 10682 10681 10680 10680 10679 10678 10677 10677 10676 10675 10674 10673 10672 10670 10669 10668 10667 10666 10665 10664 10663 10662 10661 10660 10659 10658 10657 10656 10656 10656 10656 10656 10656 10656 10656 10656 10655
10673 10674 10675 10675 10677 10678 10679 10680 10680 10681 10681 10682 10682 10682 10681 10681 10681 10681 10681 10681 10680 10679 10679 10678 10678 10678 10679 10680 10680 10679 10679 10678 10679 10679 10679 10679 10679 10679 10678 10677 10677 10677 10678 10678 10678 10677 10677 10677 10677 10677 10676 10676 10675 10674 10674 10673 10672 10671 10669 10668 10667 10666 10665 10664 10663 10662 10661 10660 10659 10658 10657 10656 10655 10654 10653 10652 10652 10651 10651 10651 10651 10651 10651 10652 10651
10668 10669 10670 10671 10672 10673 10674 10675 10676 10676 10676 10676 10677 10677 10677 10676 10676 10675 10675 10676 10676 10676 10675 10673 10674 10675 10676 10676 10676 10676 10675 10675 10676 10676 10676 10676 10675 10674 10673 10672 10672 10672 10673 10674 10673 10673 10673 10673 10673 10672 10672 10672 10671 10670 10670 10669 10668 10667 10665 10664 10662 10661 10660 10660 10659 10658 10657 10656 10655 10654 10653 10652 10651 10650 10649 10648 10648 10647 10647 10646 10646 10646 10646 10647 10647
10663 10663 10664 10666 10667 10668 10669 10670 10670 10671 10671 10671 10671 10672 10672 10672 10671 10670 10670 10670 10671 10671 10670 10669 10671 10672 10673 10673 10673 10673 10673 10673 10673 10674 10674 10673 10672 10671 10669 10668 10668 10668 10669 10669 10669 10669 10669 10669 10668 10668 10668 10667 10667 10666 10666 10665 10664 10662 10661 10659 10658 10657 10656 10656 10655 10654 10653 10652 10651 10650 10649 10648 10647 10646 10645 10644 10644 10643 10642 10642 10641 10641 10641 10641 10641
10658 10658 10659 10660 10661 10663 10663 10664 10665 10666 10666 10666 10667 10667 10667 10667 10666 10665 10665 10665 10666 10666 10666 10666 10667 10668 10669 10670 10670 10670 10669 10670 10670 10671 10671 10670 10669 10667 10666 10665 10664 10665 10665 10665 10665 10665 10665 10664 10664 10664 10664 10663 10662 10662 10661 10660 10659 10658 10656 10655 10653 10653 10652 10651 10650 10649 10648 10647 10646 10645 10644 10643 10642 10642 10641 10640 10639 10639 10638 10637 10637 10636 10636 10636 10636
10653 10653 10654 10655 10656 10657 10658 10659 10659 10660 10661 10661 10662 10663 10663 10662 10661 10661 10661 10661 10661 10661 10661 10662 10664 10665 10666 10668 10668 10667 10666 10666 10666 10667 10667 10666 10665 10663 10662 10661 10661 10661 10661 10661 10661 10660 10661 10660 10660 10659 10659 10658 10658 10657 10656 10655 10654 10653 10652 10650 10649 10648 10647 10646 10645 10644 10643 10642 10641 10640 10639 10638 10637 10637 10636 10635 10635 10634 10633 10633 10632 10631 10631 10631 10630
10648 10648 10649 10650 10651 10652 10653 10654 10654 10655 10656 10657 10658 10659 10658 10658 10657 10657 10658 10658 10658 10657 10657 10658 10659 10661 10663 10666 10666 10664 10662 10662 10662 10663 10663 10662 10661 10659 10658 10657 10657 10657 10658 10657 10657 10656 10656 10656 10655 10655 10654 10654 10653 10652 10652 10650 10649 10648 10647 10646 10645 10644 10643 10641 10640 10639 10638 10637 10636 10635 10634 10633 10632 10631 10631 10630 10629 10629 10628 10627 10627 10626 10626 10625 10625
10644 10644 10645 10645 10646 10647 10648 10649 10650 10651 10652 10653 10654 10655 10654 10654 10654 10654 10654 10655 10655 10655 10655 10654 10655 10657 10660 10662 10663 10660 10659 10659 10659 10659 10659 10658 10656 10655 10654 10653 10653 10653 10654 10653 10653 10652 10652 10651 10650 10650 10649 10649 10649 10648 10647 10646 10644 10643 10642 10641 10640 10639 10638 10637 10635 10634 10633 10631 10630 10629 10628 10627 10627 10626 10625 10624 10624 10623 10623 10622 10621 10621 10620 10620 10619
10640 10640 10641 10641 10642 10643 10644 10645 10646 10647 10648 10649 10650 10651 10651 10651 10650 10650 10650 10650 10651 10652 10652 10651 10651 10653 10655 10657 10658 10656 10656 10655 10655 10655 10655 10653 10652 10651 10650 10650 10650 10649 10649 10649 10648 10648 10647 10646 10646 10645 10645 10644 10644 10643 10642 10641 10639 10638 10637 10636 10635 10634 10633 10631 10630 10629 10627 10626 10624 10623 10622 10621 10620 10620 10619 10619 10618 10617 10617 10616 10616 10615 10615 10614 10614
10635 10636 10637 10637 10637 10638 10640 10641 10642 10643 10645 10645 10646 10647 10647 10647 10647 10646 10646 10646 10647 10647 10647 10647 10648 10649 10650 10652 10652 10652 10651 10651 10651 10650 10649 10648 10647 10646 10646 10646 10646 10645 10645 10644 10644 10643 10642 10641 10641 10640 10640 10639 10638 10637 10637 10636 10634 10633 10631 10630 10629 10628 10627 10626 10625 10623 10622 10620 10619 10617 10616 10615 10614 10614 10613 10613 10612 10611 10611 10610 10610 10609 10609 10608 10608
10631 10632 10632 10633 10633 10634 10636 10637 10638 10640 10641 10641 10642 10642 10642 10642 10642 10642 10642 10642 10643 10643 10643 10643 10644 10644 10646 10647 10647 10646 10646 10646 10645 10645 10644 10643 10642 10642 10642 10642 10641 10641 10640 10640 10639 10638 10637 10636 10635 10635 10634 10633 10633 10632 10631 10630 10629 10627 10626 10625 10623 10622 10621 10620 10619 10617 10616 10615 10613 10611 10610 10609 10609 10608 10608 10607 10606 10605 10605 10604 10604 10603 10603 10602 10602
10626 10627 10628 10629 10629 10630 10632 10633 10634 10635 10636 10637 10637 10638 10638 10638 10638 10639 10639 10639 10639 10640 10640 10640 10640 10640 10641 10642 10642 10642 10641 10640 10640 10640 10639 10638 10638 10638 10638 10637 10636 10636 10635 10635 10634 10634 10633 10632 10630 10629 10628 10628 10627 10626 10626 10625 10624 10622 10620 10619 10617 10616 10615 10613 10612 10611 10610 10608 10606 10605 10603 10603 10603 10602 10601 10601 10600 10599 10599 10598 10598 10597 10597 10596 10595
10622 10623 10624 10624 10625 10626 10628 10629 10630 10631 10632 10633 10633 10634 10634 10634 10635 10635 10636 10636 10637 10637 10637 10637 10637 10637 10637 10637 10637 10637 10636 10636 10635 10635 10634 10633 10633 10633 10633 10632 10631 10631 10630 10630 10629 10629 10628 10626 10625 10624 10623 10622 10621 10621 10620 10619 10618 10617 10615 10613 10612 10610 10608 10607 10606 10604 10603 10601 10600 10598 10597 10597 10597 10596 10595 10594 10594 10593 10593 10592 10592 10591 10590 10590 10589
10618 10619 10620 10620 10621 10623 10624 10625 10626 10626 10627 10629 10629 10630 10630 10631 10631 10632 10633 10633 10634 10634 10634 10633 10633 10633 10633 10633 10633 10632 10632 10632 10631 10631 10630 10629 10629 10629 10629 10628 10627 10626 10625 10625 10624 10623 10623 10621 10620 10619 10618 10617 10616 10615 10614 10613 10613 10611 10609 10607 10606 10604 10602 10600 10599 10598 10596 10595 10593 10591 10590 10590 10591 10590 10589 10588 10587 10587 10586 10586 10585 10585 10584 10583 10583
10615 10615 10616 10617 10618 10619 10620 10621 10622 10623 10624 10625 10625 10626 10627 10628 10628 10629 10629 10630 10630 10631 10630 10630 10629 10629 10628 10628 10628 10628 10627 10627 10627 10627 10626 10625 10625 10624 10624 10623 10622 10621 10620 10620 10619 10618 10617 10616 10615 10614 10612 10611 10610 10609 10608 10608 10607 10606 10604 10602 10599 10598 10596 10594 10593 10591 10589 10588 10586 10585 10584 10584 10584 10583 10583 10582 10581 10581 10580 10579 10578 10578 10577 10577 10576
10611 10612 10613 10614 10614 10615 10617 10618 10619 10620 10621 10621 10622 10622 10623 10624 10624 10625 10626 10627 10627 10627 10627 10626 10625 10625 10624 10623 10623 10623 10623 10623 10623 10623 10622 10621 10620 10620 10620 10619 10618 10617 10616 10614 10613 10612 10611 10610 10609 10608 10607 10605 10604 10603 10602 10601 10600 10599 10598 10596 10593 10591 10590 10588 10586 10585 10583 10582 10580 10579 10578 10578 10578 10577 10576 10576 10575 10575 10574 10573 10572 10571 10570 10570 10569
10608 10609 10610 10611 10611 10612 10614 10615 10616 10617 10618 10619 10619 10619 10620 10620 10620 10621 10622 10623 10623 10623 10622 10622 10621 10620 10619 10619 10619 10618 10618 10618 10618 10618 10618 10617 10617 10616 10616 10615 10613 10612 10611 10609 10608 10606 10605 10603 10602 10602 10600 10599 10597 10596 10596 10595 10594 10593 10592 10590 10588 10586 10583 10581 10580 10578 10576 10575 10574 10573 10572 10571 10571 10570 10570 10569 10569 10568 10567 10566 10565 10564 10564 10563 10562
10605 10606 10607 10608 10608 10609 10611 10612 10613 10614 10615 10616 10616 10616 10616 10616 10616 10617 10617 10618 10618 10618 10617 10617 10617 10616 10615 10615 10614 10614 10614 10614 10614 10614 10614 10613 10613 10612 10610 10609 10608 10607 10605 10603 10602 10600 10598 10596 10595 10594 10593 10591 10590 10590 10589 10588 10588 10587 10585 10584 10582 10580 10577 10575 10573 10572 10570 10569 10568 10567 10566 10565 10564 10563 10563 10562 10562 10561 10560 10559 10558 10557 10557 10556 10555
10602 10603 10604 10605 10605 10606 10607 10609 10610 10611 10611 10612 10613 10612 10612 10612 10612 10612 10612 10613 10613 10613 10613 10612 10612 10611 10611 10610 10610 10610 10609 10609 10609 10609 10609 10608 10608 10606 10605 10603 10602 10600 10599 10597 10595 10593 10591 10589 10588 10586 10585 10584 10583 10582 10582 10581 10581 10580 10579 10577 10575 10573 10571 10568 10566 10565 10564 10563 10562 10561 10559 10558 10557 10556 10555 10555 10554 10553 10552 10551 10551 10550 10549 10549 10548
10598 10600 10601 10601 10602 10602 10604 10605 10606 10607 10608 10608 10609 10608 10608 10608 10607 10607 10607 10607 10607 10607 10607 10607 10606 10606 10605 10605 10604 10604 10604 10603 10603 10603 10603 10602 10602 10600 10599 10597 10596 10594 10592 10590 10589 10587 10585 10583 10581 10579 10578 10576 10575 10574 10574 10573 10573 10572 10571 10569 10567 10566 10564 10562 10560 10559 10557 10556 10555 10554 10552 10551 10550 10549 10548 10547 10547 10546 10545 10544 10543 10542 10542 10541 10540
10593 10595 10596 10597 10597 10598 10599 10600 10601 10602 10603 10603 10604 10604 10604 10604 10603 10603 10602 10602 10602 10602 10601 10601 10601 10600 10599 10599 10598 10598 10597 10597 10596 10596 10595 10595 10594 10593 10592 10591 10589 10588 10586 10584 10582 10580 10578 10576 10574 10572 10571 10569 10567 10566 10565 10564 10564 10563 10562 10561 10559 10558 10556 10555 10554 10552 10551 10549 10548 10546 10545 10544 10543 10542 10541 10540 10539 10538 10538 10537 10536 10535 10534 10533 10533
10589 10590 10591 10592 10592 10593 10594 10595 10596 10597 10598 10598 10598 10599 10599 10599 10598 10598 10597 10596 10596 10596 10596 10595 10595 10594 10594 10593 10592 10591 10591 10590 10589 10588 10588 10587 10586 10585 10584 10583 10582 10581 10579 10577 10576 10574 10572 10570 10568 10566 10564 10562 10560 10559 10557 10556 10555 10554 10553 10552 10551 10550 10548 10547 10546 10545 10543 10542 10541 10539 10538 10537 10536 10535 10534 10532 10531 10531 10530 10529 10528 10527 10526 10526 10525
10585 10585 10586 10587 10588 10589 10589 10590 10591 10592 10592 10592 10592 10592 10592 10592 10592 10591 10591 10590 10590 10590 10589 10589 10589 10588 10587 10587 10586 10585 10584 10583 10582 10581 10580 10579 10578 10577 10576 10575 10574 10572 10571 10569 10567 10565 10563 10562 10560 10559 10556 10554 10553 10552 10550 10548 10546 10546 10545 10544 10543 10542 10541 10540 10539 10537 10536 10535 10534 10533 10532 10531 10529 10528 10527 10525 10524 10523 10522 10521 10520 10520 10519 10518 10518
10579 10580 10580 10581 10582 10584 10585 10585 10586 10586 10586 10586 10586 10586 10585 10585 10585 10585 10584 10584 10583 10583 10582 10582 10581 10581 10580 10580 10579 10578 10577 10576 10575 10574 10573 10572 10570 10569 10567 10566 10564 10563 10562 10560 10558 10556 10555 10553 10552 10550 10548 10547 10546 10544 10542 10540 10538 10537 10536 10535 10534 10533 10533 10532 10530 10529 10528 10528 10527 10526 10525 10523 10522 10521 10520 10518 10517 10515 10514 10513 10512 10512 10511 10510 10510
10574 10574 10574 10575 10576 10578 10579 10580 10580 10580 10580 10579 10579 10579 10579 10578 10578 10578 10578 10578 10577 10576 10575 10575 10574 10573 10573 10572 10571 10570 10569 10568 10567 10566 10565 10564 10563 10561 10560 10558 10556 10554 10553 10551 10549 10548 10546 10545 10544 10542 10540 10538 10537 10536 10533 10531 10530 10528 10527 10525 10525 10524 10524 10523 10521 10520 10519 10519 10519 10518 10517 10515 10514 10513 10512 10511 10509 10508 10507 10506 10505 10504 10503 10502 10502
10567 10567 10568 10569 10570 10571 10573 10574 10573 10573 10573 10572 10572 10572 10572 10572 10572 10572 10571 10571 10571 10570 10569 10569 10568 10567 10566 10565 10564 10563 10562 10560 10559 10558 10557 10556 10555 10553 10552 10550 10548 10546 10544 10542 10541 10539 10538 10536 10534 10533 10531 10529 10528 10526 10524 10522 10521 10520 10517 10516 10516 10516 10516 10515 10513 10512 10511 10511 10511 10510 10509 10507 10506 10505 10504 10502 10501 10500 10499 10498 10498 10497 10496 10495 10494
10559 10560 10560 10562 10563 10564 10566 10567 10567 10566 10566 10566 10566 10566 10566 10566 10566 10565 10565 10564 10564 10563 10563 10562 10561 10560 10560 10558 10557 10556 10554 10553 10552 10550 10549 10548 10546 10545 10543 10541 10539 10538 10536 10534 10532 10531 10529 10527 10526 10524 10522 10521 10519 10518 10517 10516 10514 10512 10510 10509 10508 10508 10507 10507 10506 10504 10503 10503 10503 10503 10501 10499 10497 10497 10496 10494 10493 10492 10491 10491 10490 10489 10488 10487 10485
10554 10554 10555 10556 10557 10558 10559 10560 10560 10560 10560 10560 10560 10560 10559 10559 10559 10558 10557 10557 10556 10556 10555 10554 10554 10553 10552 10551 10550 10548 10546 10545 10543 10542 10541 10540 10538 10536 10534 10532 10531 10529 10528 10526 10524 10523 10522 10520 10518 10516 10515 10514 10512 10510 10509 10509 10507 10506 10503 10502 10500 10500 10499 10499 10498 10497 10495 10495 10494 10494 10493 10491 10489 10489 10488 10486 10485 10484 10483 10483 10482 10481 10480 10478 10476
10550 10550 10551 10552 10553 10553 10553 10554 10554 10554 10554 10554 10554 10554 10553 10553 10552 10552 10551 10550 10549 10548 10547 10546 10545 10544 10544 10542 10541 10539 10538 10536 10534 10533 10532 10531 10529 10527 10525 10524 10522 10521 10520 10518 10517 10516 10515 10513 10512 10510 10508 10507 10504 10502 10501 10500 10499 10498 10496 10495 10493 10492 10491 10490 10489 10488 10487 10486 10485 10485 10484 10482 10480 10480 10478 10476 10475 10475 10474 10474 10473 10472 10471 10470 10468
10544 10545 10546 10547 10548 10548 10547 10547 10547 10547 10547 10547 10547 10547 10546 10546 10545 10545 10544 10543 10542 10541 10540 10539 10537 10536 10535 10534 10532 10530 10529 10527 10526 10525 10524 10522 10521 10519 10517 10515 10514 10513 10512 10510 10509 10509 10507 10506 10505 10504 10502 10499 10497 10495 10493 10492 10491 10490 10489 10487 10486 10485 10484 10482 10481 10481 10480 10479 10477 10476 10475 10474 10471 10470 10469 10466 10465 10465 10465 10464 10464 10463 10462 10461 10459
10538 10538 10539 10540 10541 10541 10540 10540 10539 10539 10539 10539 10539 10539 10539 10538 10537 10536 10536 10535 10534 10533 10532 10530 10529 10527 10526 10525 10523 10521 10520 10518 10517 10517 10516 10514 10512 10510 10508 10507 10506 10505 10504 10502 10502 10501 10500 10499 10498 10497 10495 10493 10490 10488 10486 10484 10483 10482 10481 10480 10478 10477 10477 10476 10474 10474 10473 10472 10470 10467 10466 10466 10463 10461 10459 10457 10455 10455 10454 10454 10454 10454 10453 10451 10450
10532 10531 10532 10532 10533 10533 10532 10531 10531 10531 10531 10531 10531 10531 10531 10530 10529 10528 10526 10525 10524 10523 10522 10521 10520 10518 10517 10516 10515 10513 10511 10509 10509 10509 10508 10506 10505 10502 10500 10498 10497 10497 10495 10494 10494 10494 10493 10492 10491 10489 10489 10487 10484 10482 10480 10477 10476 10474 10473 10472 10469 10468 10468 10467 10466 10465 10464 10463 10461 10458 10457 10457 10455 10452 10450 10448 10445 10444 10444 10444 10445 10445 10444 10442 10440
10525 10524 10525 10524 10524 10524 10523 10522 10522 10523 10523 10523 10523 10523 10523 10522 10522 10520 10518 10516 10515 10513 10512 10511 10510 10509 10508 10507 10506 10504 10502 10500 10500 10500 10499 10498 10496 10494 10491 10490 10489 10488 10485 10485 10486 10487 10486 10486 10485 10483 10482 10481 10478 10477 10474 10472 10470 10467 10466 10464 10461 10459 10458 10457 10456 10456 10454 10452 10450 10448 10448 10447 10446 10443 10441 10438 10436 10433 10432 10433 10435 10435 10435 10432 10430
10518 10518 10518 10517 10515 10514 10513 10513 10514 10513 10513 10513 10514 10515 10515 10514 10514 10512 10511 10509 10507 10505 10503 10501 10500 10499 10498 10497 10496 10494 10493 10490 10489 10488 10488 10487 10486 10484 10483 10482 10481 10479 10476 10475 10476 10476 10476 10476 10475 10474 10474 10473 10470 10469 10468 10466 10464 10462 10459 10457 10455 10453 10452 10450 10449 10447 10445 10443 10440 10438 10437 10436 10435 10433 10430 10427 10425 10422 10420 10421 10424 10425 10424 10422 10420